Time,TemperatureF,DewpointF,PressureIn,WindDirection,WindDirectionDegrees,WindSpeedMPH,WindSpeedGustMPH,Humidity,HourlyPrecipIn,Conditions,Clouds,dailyrainin,SolarRadiationWatts/m^2,SoftwareType,DateUTC
2013-06-09 00:00:00,74.7,72.2,30.01,NNE,22,0.0,0.0,92,0.00,SCT,,0.01,0.0,WeatherDisplay:10.37,2013-06-09 04:00:00,
2013-06-09 00:01:00,74.6,72.1,30.01,NNE,22,0.0,0.0,92,0.00,RA,,0.00,0.0,WeatherDisplay:10.37,2013-06-09 04:01:00,
2013-06-09 00:02:00,74.7,72.2,30.01,NNE,22,0.0,0.0,92,0.00,RA,,0.00,0.0,WeatherDisplay:10.37,2013-06-09 04:02:00,
2013-06-09 00:07:00,74.7,72.2,30.01,NNE,22,0.0,0.0,92,0.00,RA,,0.00,0.0,WeatherDisplay:10.37,2013-06-09 04:07:00,
2013-06-09 00:12:00,74.6,72.1,30.01,NNE,22,1.2,1.2,92,0.00,BKN,,0.00,0.0,WeatherDisplay:10.37,2013-06-09 04:12:00,
2013-06-09 00:17:00,74.7,72.2,30.01,NNE,22,1.2,0.0,92,0.00,BKN,,0.00,0.0,WeatherDisplay:10.37,2013-06-09 04:17:00,
2013-06-09 00:22:00,74.7,72.2,30.01,NNE,22,1.2,1.2,92,0.00,BKN,,0.00,0.0,WeatherDisplay:10.37,2013-06-09 04:22:00,
2013-06-09 00:27:00,74.7,72.2,30.01,NNE,22,1.4,1.4,92,0.00,BKN,,0.00,0.0,WeatherDisplay:10.37,2013-06-09 04:27:00,
2013-06-09 00:32:00,74.7,72.2,30.02,NNE,22,2.7,2.7,92,0.00,BKN,,0.00,0.0,WeatherDisplay:10.37,2013-06-09 04:32:00,
2013-06-09 00:37:00,74.7,72.2,30.02,NNE,22,4.6,4.6,92,0.00,BKN,,0.00,0.0,WeatherDisplay:10.37,2013-06-09 04:37:00,
2013-06-09 00:42:00,74.6,72.1,30.02,NNE,22,0.0,0.0,92,0.00,BKN,,0.00,0.0,WeatherDisplay:10.37,2013-06-09 04:42:00,
2013-06-09 00:47:00,74.6,72.1,30.02,NNE,22,1.2,1.2,92,0.00,BKN,,0.00,0.0,WeatherDisplay:10.37,2013-06-09 04:47:00,
2013-06-09 00:52:00,74.6,72.1,30.02,NNE,22,0.0,0.0,92,0.00,BKN,,0.00,0.0,WeatherDisplay:10.37,2013-06-09 04:52:00,
2013-06-09 00:57:00,74.6,72.1,30.02,NNE,22,2.3,2.3,92,0.00,BKN,,0.00,0.0,WeatherDisplay:10.37,2013-06-09 04:57:00,
2013-06-09 01:02:00,74.5,72.0,30.02,NNE,22,2.7,2.7,92,0.00,SCT,,0.00,0.0,WeatherDisplay:10.37,2013-06-09 05:02:00,
2013-06-09 01:07:00,74.3,71.8,30.02,NNE,22,0.0,0.0,92,0.00,SCT,,0.00,0.0,WeatherDisplay:10.37,2013-06-09 05:07:00,
2013-06-09 01:12:00,74.2,71.7,30.02,NNE,22,0.0,0.0,92,0.00,SCT,,0.00,0.0,WeatherDisplay:10.37,2013-06-09 05:12:00,
2013-06-09 01:17:00,74.2,71.7,30.02,NNE,22,0.0,0.0,92,0.00,SCT,,0.00,0.0,WeatherDisplay:10.37,2013-06-09 05:17:00,
2013-06-09 01:22:00,74.0,71.5,30.02,NNE,22,0.0,0.0,92,0.00,SCT,,0.00,0.0,WeatherDisplay:10.37,2013-06-09 05:22:00,
2013-06-09 01:27:00,73.9,71.4,30.02,NNE,22,1.4,1.4,92,0.00,SCT,,0.00,0.0,WeatherDisplay:10.37,2013-06-09 05:27:00,
2013-06-09 01:32:00,74.0,71.8,30.02,NNE,22,2.3,2.3,93,0.00,SCT,,0.00,0.0,WeatherDisplay:10.37,2013-06-09 05:32:00,
2013-06-09 01:37:00,74.0,71.5,30.02,NNE,22,0.0,0.0,92,0.00,SCT,,0.00,0.0,WeatherDisplay:10.37,2013-06-09 05:37:00,
2013-06-09 01:42:00,73.9,71.4,30.02,NNE,22,1.2,1.2,92,0.00,SCT,,0.00,0.0,WeatherDisplay:10.37,2013-06-09 05:42:00,
2013-06-09 01:47:00,73.9,71.4,30.02,NNE,22,1.2,0.0,92,0.00,SCT,,0.00,0.0,WeatherDisplay:10.37,2013-06-09 05:47:00,
2013-06-09 01:52:00,73.9,71.4,30.02,NNE,22,1.2,1.2,92,0.00,SCT,,0.00,0.0,WeatherDisplay:10.37,2013-06-09 05:52:00,
2013-06-09 01:57:00,73.9,71.4,30.02,NNE,22,0.0,0.0,92,0.00,SCT,,0.00,0.0,WeatherDisplay:10.37,2013-06-09 05:57:00,
2013-06-09 02:02:00,73.8,71.3,30.02,NNE,22,0.0,0.0,92,0.00,BKN,,0.00,0.0,WeatherDisplay:10.37,2013-06-09 06:02:00,
2013-06-09 02:07:00,73.7,71.5,30.02,NNE,22,1.2,1.2,93,0.00,BKN,,0.00,0.0,WeatherDisplay:10.37,2013-06-09 06:07:00,
2013-06-09 02:12:00,73.6,71.4,30.02,NNE,22,0.0,0.0,93,0.00,BKN,,0.00,0.0,WeatherDisplay:10.37,2013-06-09 06:12:00,
2013-06-09 02:17:00,73.7,71.5,30.02,NNE,22,0.0,0.0,93,0.00,BKN,,0.00,0.0,WeatherDisplay:10.37,2013-06-09 06:17:00,
2013-06-09 02:22:00,73.7,71.5,30.02,NNE,22,1.4,1.4,93,0.00,BKN,,0.00,0.0,WeatherDisplay:10.37,2013-06-09 06:22:00,
2013-06-09 02:27:00,73.6,71.4,30.02,NNE,22,2.3,2.3,93,0.00,BKN,,0.00,0.0,WeatherDisplay:10.37,2013-06-09 06:27:00,
2013-06-09 02:32:00,73.7,71.5,30.02,NNE,22,1.4,1.4,93,0.00,BKN,,0.00,0.0,WeatherDisplay:10.37,2013-06-09 06:32:00,
2013-06-09 02:37:00,73.7,71.5,30.02,NNE,22,1.2,1.2,93,0.00,BKN,,0.00,0.0,WeatherDisplay:10.37,2013-06-09 06:37:00,
2013-06-09 02:42:00,73.7,71.5,30.02,NNE,22,0.0,0.0,93,0.00,BKN,,0.00,0.0,WeatherDisplay:10.37,2013-06-09 06:42:00,
2013-06-09 02:47:00,73.6,71.4,30.02,NNE,22,0.0,0.0,93,0.00,BKN,,0.00,0.0,WeatherDisplay:10.37,2013-06-09 06:47:00,
2013-06-09 02:52:00,73.6,71.4,30.02,NNE,22,0.0,0.0,93,0.00,BKN,,0.00,0.0,WeatherDisplay:10.37,2013-06-09 06:52:00,
2013-06-09 02:57:00,73.6,71.4,30.02,NNE,22,0.0,0.1,93,0.00,BKN,,0.00,0.0,WeatherDisplay:10.37,2013-06-09 06:57:00,
2013-06-09 03:02:00,73.7,71.5,30.02,NNE,22,2.3,2.3,93,0.00,OVC,,0.00,0.0,WeatherDisplay:10.37,2013-06-09 07:02:00,
2013-06-09 03:07:00,73.7,71.5,30.02,NNE,22,0.0,0.0,93,0.00,OVC,,0.00,0.0,WeatherDisplay:10.37,2013-06-09 07:07:00,
2013-06-09 03:12:00,73.7,71.5,30.02,NNE,22,0.0,0.0,93,0.00,OVC,,0.00,0.0,WeatherDisplay:10.37,2013-06-09 07:12:00,
2013-06-09 03:17:00,73.6,71.4,30.02,NNE,22,0.0,0.0,93,0.00,OVC,,0.00,0.0,WeatherDisplay:10.37,2013-06-09 07:17:00,
2013-06-09 03:22:00,73.5,71.4,30.02,NNE,22,4.1,4.1,93,0.00,OVC,,0.00,0.0,WeatherDisplay:10.37,2013-06-09 07:22:00,
2013-06-09 03:27:00,73.6,71.4,30.02,NNE,22,5.8,5.8,93,0.00,OVC,,0.00,0.0,WeatherDisplay:10.37,2013-06-09 07:27:00,
2013-06-09 03:32:00,73.6,71.4,30.02,NNE,22,5.8,5.8,93,0.00,OVC,,0.00,0.0,WeatherDisplay:10.37,2013-06-09 07:32:00,
2013-06-09 03:37:00,73.6,71.4,30.02,NNE,22,2.3,3.3,93,0.00,OVC,,0.00,0.0,WeatherDisplay:10.37,2013-06-09 07:37:00,
2013-06-09 03:42:00,73.6,71.4,30.02,NNE,22,0.0,0.0,93,0.00,OVC,,0.00,0.0,WeatherDisplay:10.37,2013-06-09 07:42:00,
2013-06-09 03:47:00,73.5,71.4,30.02,NNE,22,0.0,0.0,93,0.00,OVC,,0.00,0.0,WeatherDisplay:10.37,2013-06-09 07:47:00,
2013-06-09 03:52:00,73.5,71.4,30.02,NNE,22,0.0,0.2,93,0.00,OVC,,0.00,0.0,WeatherDisplay:10.37,2013-06-09 07:52:00,
2013-06-09 03:57:00,73.5,71.4,30.02,NNE,22,0.0,0.0,93,0.00,OVC,,0.00,0.0,WeatherDisplay:10.37,2013-06-09 07:57:00,
2013-06-09 04:04:00,73.4,71.3,30.02,NNE,22,0.0,0.0,93,0.00,BKN,,0.00,0.0,WeatherDisplay:10.37,2013-06-09 08:04:00,
2013-06-09 04:09:00,73.4,71.3,30.02,NNE,22,0.0,0.0,93,0.00,BKN,,0.00,0.0,WeatherDisplay:10.37,2013-06-09 08:09:00,
2013-06-09 04:14:00,73.3,71.2,30.02,NNE,22,0.0,0.0,93,0.00,BKN,,0.00,0.0,WeatherDisplay:10.37,2013-06-09 08:14:00,
2013-06-09 04:19:00,73.3,71.2,30.01,NNE,22,0.0,0.0,93,0.00,BKN,,0.00,0.0,WeatherDisplay:10.37,2013-06-09 08:19:00,
2013-06-09 04:24:00,73.3,71.2,30.01,NNE,22,0.0,0.0,93,0.00,BKN,,0.00,0.0,WeatherDisplay:10.37,2013-06-09 08:24:00,
2013-06-09 04:29:00,73.2,71.1,30.02,NNE,22,0.0,0.0,93,0.00,BKN,,0.00,0.0,WeatherDisplay:10.37,2013-06-09 08:29:00,
2013-06-09 04:36:00,73.0,70.9,30.02,NNE,22,0.0,0.1,93,0.00,BKN,,0.00,0.0,WeatherDisplay:10.37,2013-06-09 08:36:00,
2013-06-09 04:42:00,73.0,70.9,30.02,NNE,22,0.0,0.0,93,0.00,BKN,,0.00,0.0,WeatherDisplay:10.37,2013-06-09 08:42:00,
2013-06-09 04:47:00,72.9,70.8,30.02,NNE,22,0.0,0.0,93,0.00,BKN,,0.00,0.0,WeatherDisplay:10.37,2013-06-09 08:47:00,
2013-06-09 04:52:00,72.9,70.8,30.02,NNE,22,0.0,0.0,93,0.00,BKN,,0.00,0.0,WeatherDisplay:10.37,2013-06-09 08:52:00,
2013-06-09 04:57:00,72.9,70.8,30.02,NNE,22,0.0,0.0,93,0.00,BKN,,0.00,0.0,WeatherDisplay:10.37,2013-06-09 08:57:00,
2013-06-09 05:02:00,72.8,70.7,30.02,NNE,22,0.0,0.0,93,0.00,BKN,,0.00,0.0,WeatherDisplay:10.37,2013-06-09 09:02:00,
2013-06-09 05:07:00,72.8,70.7,30.02,NNE,22,0.0,0.0,93,0.00,BKN,,0.00,0.0,WeatherDisplay:10.37,2013-06-09 09:07:00,
2013-06-09 05:12:00,72.7,70.6,30.02,NNE,22,0.0,0.0,93,0.00,BKN,,0.00,0.0,WeatherDisplay:10.37,2013-06-09 09:12:00,
2013-06-09 05:17:00,72.6,70.5,30.02,NNE,22,0.0,0.0,93,0.00,BKN,,0.00,0.0,WeatherDisplay:10.37,2013-06-09 09:17:00,
2013-06-09 05:22:00,72.4,70.3,30.02,NNE,22,0.0,0.0,93,0.00,BKN,,0.00,0.0,WeatherDisplay:10.37,2013-06-09 09:22:00,
2013-06-09 05:27:00,72.3,70.2,30.02,NNE,22,0.0,0.0,93,0.00,BKN,,0.00,0.0,WeatherDisplay:10.37,2013-06-09 09:27:00,
2013-06-09 05:32:00,72.2,70.4,30.02,NNE,22,0.0,0.0,94,0.00,BKN,,0.00,0.0,WeatherDisplay:10.37,2013-06-09 09:32:00,
2013-06-09 05:37:00,72.1,70.3,30.02,NNE,22,0.0,0.0,94,0.00,BKN,,0.00,0.0,WeatherDisplay:10.37,2013-06-09 09:37:00,
2013-06-09 05:42:00,72.1,70.3,30.02,NNE,22,0.0,0.0,94,0.00,BKN,,0.00,0.0,WeatherDisplay:10.37,2013-06-09 09:42:00,
2013-06-09 05:47:00,72.1,70.3,30.02,NNE,22,0.0,0.0,94,0.00,BKN,,0.00,0.0,WeatherDisplay:10.37,2013-06-09 09:47:00,
2013-06-09 05:52:00,72.0,70.2,30.02,NNE,22,1.4,1.4,94,0.00,BKN,,0.00,0.0,WeatherDisplay:10.37,2013-06-09 09:52:00,
2013-06-09 05:57:00,72.3,70.5,30.02,NNE,22,1.2,1.2,94,0.00,BKN,,0.00,0.0,WeatherDisplay:10.37,2013-06-09 09:57:00,
2013-06-09 06:02:00,72.4,70.6,30.02,NNE,22,2.7,2.7,94,0.00,BKN,,0.00,0.0,WeatherDisplay:10.37,2013-06-09 10:02:00,
2013-06-09 06:07:00,72.4,70.6,30.02,NNE,23,1.4,1.9,94,0.00,BKN,,0.00,0.0,WeatherDisplay:10.37,2013-06-09 10:07:00,
2013-06-09 06:12:00,72.3,70.5,30.02,NNE,17,2.3,2.3,94,0.00,BKN,,0.00,0.0,WeatherDisplay:10.37,2013-06-09 10:12:00,
2013-06-09 06:17:00,72.2,70.4,30.02,NNE,17,1.2,1.2,94,0.00,BKN,,0.00,0.0,WeatherDisplay:10.37,2013-06-09 10:17:00,
2013-06-09 06:22:00,72.1,70.3,30.02,NNE,13,0.0,0.1,94,0.00,BKN,,0.00,0.0,WeatherDisplay:10.37,2013-06-09 10:22:00,
2013-06-09 06:27:00,71.9,70.1,30.02,NNE,13,0.0,0.0,94,0.00,BKN,,0.00,0.0,WeatherDisplay:10.37,2013-06-09 10:27:00,
2013-06-09 06:32:00,71.9,70.1,30.03,NNE,13,0.0,0.0,94,0.00,BKN,,0.00,5.0,WeatherDisplay:10.37,2013-06-09 10:32:00,
2013-06-09 06:37:00,71.6,69.8,30.03,NNE,15,0.0,0.1,94,0.00,BKN,,0.00,7.0,WeatherDisplay:10.37,2013-06-09 10:37:00,
2013-06-09 06:42:00,71.7,69.9,30.03,NNE,15,0.0,0.0,94,0.00,BKN,,0.00,11.0,WeatherDisplay:10.37,2013-06-09 10:42:00,
2013-06-09 06:47:00,71.7,69.9,30.03,NNE,15,0.0,0.0,94,0.00,BKN,,0.00,16.0,WeatherDisplay:10.37,2013-06-09 10:47:00,
2013-06-09 06:52:00,71.7,69.9,30.03,NNE,15,0.0,0.0,94,0.00,BKN,,0.00,21.0,WeatherDisplay:10.37,2013-06-09 10:52:00,
2013-06-09 06:57:00,71.7,69.9,30.03,NNE,15,0.0,0.0,94,0.00,BKN,,0.00,28.0,WeatherDisplay:10.37,2013-06-09 10:57:00,
2013-06-09 07:02:00,71.8,70.0,30.03,NNE,15,0.0,0.0,94,0.00,BKN,,0.00,40.0,WeatherDisplay:10.37,2013-06-09 11:02:00,
2013-06-09 07:07:00,72.1,70.3,30.03,NNE,17,1.2,1.2,94,0.00,BKN,,0.00,49.0,WeatherDisplay:10.37,2013-06-09 11:07:00,
2013-06-09 07:12:00,72.4,70.6,30.03,NNE,17,0.0,0.2,94,0.00,BKN,,0.00,54.0,WeatherDisplay:10.37,2013-06-09 11:12:00,
2013-06-09 07:17:00,72.7,70.9,30.03,NNE,17,0.0,0.0,94,0.00,BKN,,0.00,60.0,WeatherDisplay:10.37,2013-06-09 11:17:00,
2013-06-09 07:22:00,72.8,71.0,30.03,NNE,17,0.0,0.0,94,0.00,BKN,,0.00,72.0,WeatherDisplay:10.37,2013-06-09 11:22:00,
2013-06-09 07:27:00,73.1,71.3,30.03,NNE,17,0.0,0.0,94,0.00,BKN,,0.00,86.0,WeatherDisplay:10.37,2013-06-09 11:27:00,
2013-06-09 07:32:00,73.4,71.6,30.03,NNE,17,1.2,1.2,94,0.00,BKN,,0.00,100.0,WeatherDisplay:10.37,2013-06-09 11:32:00,
2013-06-09 07:37:00,73.7,71.9,30.03,NNE,17,0.0,0.0,94,0.00,BKN,,0.00,113.0,WeatherDisplay:10.37,2013-06-09 11:37:00,
2013-06-09 07:42:00,73.9,72.1,30.03,NNE,17,2.3,2.3,94,0.00,BKN,,0.00,130.0,WeatherDisplay:10.37,2013-06-09 11:42:00,
2013-06-09 07:47:00,74.3,72.5,30.04,NNE,17,4.6,4.6,94,0.00,BKN,,0.00,148.0,WeatherDisplay:10.37,2013-06-09 11:47:00,
2013-06-09 07:52:00,74.7,72.9,30.04,NNE,17,1.2,0.0,94,0.00,BKN,,0.00,158.0,WeatherDisplay:10.37,2013-06-09 11:52:00,
2013-06-09 07:57:00,74.8,72.6,30.04,NNE,19,1.2,2.0,93,0.00,BKN,,0.00,193.0,WeatherDisplay:10.37,2013-06-09 11:57:00,
2013-06-09 08:02:00,75.3,73.1,30.04,NNE,19,6.9,6.9,93,0.00,BKN,,0.00,355.0,WeatherDisplay:10.37,2013-06-09 12:02:00,
2013-06-09 08:07:00,75.6,73.4,30.04,NNE,21,6.9,7.3,93,0.00,BKN,,0.00,315.0,WeatherDisplay:10.37,2013-06-09 12:07:00,
2013-06-09 08:12:00,75.9,73.4,30.04,NNE,21,6.9,6.9,92,0.00,BKN,,0.00,209.0,WeatherDisplay:10.37,2013-06-09 12:12:00,
2013-06-09 08:17:00,76.1,73.3,30.05,NNE,21,6.9,6.9,91,0.00,BKN,,0.00,193.0,WeatherDisplay:10.37,2013-06-09 12:17:00,
2013-06-09 08:22:00,76.3,73.1,30.05,NNE,21,8.1,8.1,90,0.00,BKN,,0.00,185.0,WeatherDisplay:10.37,2013-06-09 12:22:00,
2013-06-09 08:27:00,76.6,73.4,30.05,NNE,22,4.6,4.6,90,0.00,BKN,,0.00,200.0,WeatherDisplay:10.37,2013-06-09 12:27:00,
2013-06-09 08:32:00,76.9,73.4,30.06,NNE,22,4.6,4.7,89,0.00,BKN,,0.00,248.0,WeatherDisplay:10.37,2013-06-09 12:32:00,
2013-06-09 08:37:00,77.3,73.5,30.06,NNE,24,5.8,5.8,88,0.00,BKN,,0.00,234.0,WeatherDisplay:10.37,2013-06-09 12:37:00,
2013-06-09 08:42:00,77.5,73.7,30.06,NNE,23,1.2,2.4,88,0.00,BKN,,0.00,267.0,WeatherDisplay:10.37,2013-06-09 12:42:00,
2013-06-09 08:48:00,77.7,73.5,30.06,NNE,23,5.8,5.8,87,0.00,BKN,,0.00,234.0,WeatherDisplay:10.37,2013-06-09 12:48:00,
2013-06-09 08:53:00,77.6,73.1,30.06,NNE,21,4.6,4.6,86,0.00,BKN,,0.00,214.0,WeatherDisplay:10.37,2013-06-09 12:53:00,
2013-06-09 08:58:00,77.9,73.4,30.06,NNE,21,5.8,5.8,86,0.00,BKN,,0.00,220.0,WeatherDisplay:10.37,2013-06-09 12:58:00,
2013-06-09 09:03:00,78.0,72.8,30.06,NNE,21,5.8,5.8,84,0.00,BKN,,0.00,234.0,WeatherDisplay:10.37,2013-06-09 13:03:00,
2013-06-09 09:08:00,78.5,73.3,30.06,NNE,22,1.2,1.2,84,0.00,BKN,,0.00,420.0,WeatherDisplay:10.37,2013-06-09 13:08:00,
2013-06-09 09:13:00,79.0,72.7,30.06,NNE,21,4.6,4.6,81,0.00,BKN,,0.00,345.0,WeatherDisplay:10.37,2013-06-09 13:13:00,
2013-06-09 09:18:00,79.2,72.9,30.06,NNE,21,2.3,2.3,81,0.00,BKN,,0.00,218.0,WeatherDisplay:10.37,2013-06-09 13:18:00,
2013-06-09 09:23:00,79.8,73.8,30.06,NNE,21,1.2,1.2,82,0.00,BKN,,0.00,512.0,WeatherDisplay:10.37,2013-06-09 13:23:00,
2013-06-09 09:28:00,80.3,73.6,30.06,NNE,22,11.5,11.5,80,0.00,BKN,,0.00,253.0,WeatherDisplay:10.37,2013-06-09 13:28:00,
2013-06-09 09:33:00,80.7,73.2,30.06,NNE,22,5.5,5.5,78,0.00,BKN,,0.00,323.0,WeatherDisplay:10.37,2013-06-09 13:33:00,
2013-06-09 09:38:00,80.7,73.2,30.06,NNE,22,4.1,4.1,78,0.00,BKN,,0.00,232.0,WeatherDisplay:10.37,2013-06-09 13:38:00,
2013-06-09 09:43:00,80.8,72.9,30.06,NNE,22,6.9,6.9,77,0.00,BKN,,0.00,406.0,WeatherDisplay:10.37,2013-06-09 13:43:00,
2013-06-09 09:48:00,81.3,73.4,30.06,NNE,19,6.9,6.9,77,0.00,BKN,,0.00,638.0,WeatherDisplay:10.37,2013-06-09 13:48:00,
2013-06-09 09:53:00,81.8,73.5,30.06,NNE,21,5.8,5.8,76,0.00,BKN,,0.00,601.0,WeatherDisplay:10.37,2013-06-09 13:53:00,
2013-06-09 09:58:00,82.3,74.0,30.06,NNE,21,8.1,8.1,76,0.00,BKN,,0.00,519.0,WeatherDisplay:10.37,2013-06-09 13:58:00,
2013-06-09 10:03:00,82.5,73.8,30.05,NNE,23,8.1,9.6,75,0.01,RA,,0.01,605.0,WeatherDisplay:10.37,2013-06-09 14:03:00,
2013-06-09 10:08:00,82.9,73.8,30.05,NNE,22,6.9,6.9,74,0.01,RA,,0.01,673.0,WeatherDisplay:10.37,2013-06-09 14:08:00,
2013-06-09 10:13:00,83.8,75.0,30.05,NNE,22,15.0,15.8,75,0.01,BKN,,0.01,833.0,WeatherDisplay:10.37,2013-06-09 14:13:00,
2013-06-09 10:18:00,84.9,76.1,30.05,NNE,22,8.1,9.8,75,0.01,BKN,,0.01,889.0,WeatherDisplay:10.37,2013-06-09 14:18:00,
2013-06-09 10:23:00,86.1,76.8,30.05,NNE,21,11.5,11.5,74,0.01,BKN,,0.01,1025.0,WeatherDisplay:10.37,2013-06-09 14:23:00,
2013-06-09 10:28:00,87.1,77.4,30.05,NNE,19,5.8,6.0,73,0.01,BKN,,0.01,1076.0,WeatherDisplay:10.37,2013-06-09 14:28:00,
2013-06-09 10:33:00,86.3,75.8,30.05,NNE,22,13.8,14.8,71,0.01,BKN,,0.01,476.0,WeatherDisplay:10.37,2013-06-09 14:33:00,
2013-06-09 10:38:00,85.2,75.1,30.05,NNE,23,13.8,13.8,72,0.01,BKN,,0.01,367.0,WeatherDisplay:10.37,2013-06-09 14:38:00,
2013-06-09 10:43:00,84.8,75.2,30.05,NNE,22,16.1,16.1,73,0.01,BKN,,0.01,364.0,WeatherDisplay:10.37,2013-06-09 14:43:00,
2013-06-09 10:48:00,84.4,75.6,30.05,NNE,22,11.5,11.5,75,0.01,BKN,,0.01,415.0,WeatherDisplay:10.37,2013-06-09 14:48:00,
2013-06-09 10:53:00,84.9,75.7,30.05,NNE,23,12.7,12.7,74,0.01,BKN,,0.01,1083.0,WeatherDisplay:10.37,2013-06-09 14:53:00,
2013-06-09 10:58:00,86.1,76.4,30.05,NNE,23,12.4,12.4,73,0.01,BKN,,0.01,912.0,WeatherDisplay:10.37,2013-06-09 14:58:00,
2013-06-09 11:03:00,86.4,76.7,30.05,NNE,22,8.1,8.1,73,0.00,BKN,,0.01,561.0,WeatherDisplay:10.37,2013-06-09 15:03:00,
2013-06-09 11:08:00,86.4,76.3,30.05,NNE,23,11.5,11.5,72,0.00,BKN,,0.01,438.0,WeatherDisplay:10.37,2013-06-09 15:08:00,
2013-06-09 11:13:00,86.6,76.5,30.05,NNE,19,9.2,9.2,72,0.00,BKN,,0.01,1160.0,WeatherDisplay:10.37,2013-06-09 15:13:00,
2013-06-09 11:18:00,87.1,77.0,30.06,NNE,21,6.9,6.9,72,0.00,BKN,,0.01,846.0,WeatherDisplay:10.37,2013-06-09 15:18:00,
2013-06-09 11:23:00,87.4,76.4,30.06,NNE,20,13.8,13.8,70,0.00,BKN,,0.01,538.0,WeatherDisplay:10.37,2013-06-09 15:23:00,
2013-06-09 11:28:00,87.3,76.3,30.06,NNE,21,12.4,12.4,70,0.00,BKN,,0.01,531.0,WeatherDisplay:10.37,2013-06-09 15:28:00,
2013-06-09 11:33:00,87.2,75.8,30.06,NNE,22,13.8,14.8,69,0.00,BKN,,0.01,1007.0,WeatherDisplay:10.37,2013-06-09 15:33:00,
2013-06-09 11:38:00,88.3,77.3,30.06,NNE,19,12.7,12.7,70,0.00,BKN,,0.01,1004.0,WeatherDisplay:10.37,2013-06-09 15:38:00,
2013-06-09 11:43:00,88.8,76.4,30.06,NNE,22,11.0,11.0,67,0.00,BKN,,0.01,1020.0,WeatherDisplay:10.37,2013-06-09 15:43:00,
2013-06-09 11:48:00,89.0,75.7,30.06,NNE,23,15.0,15.0,65,0.00,BKN,,0.01,1092.0,WeatherDisplay:10.37,2013-06-09 15:48:00,
2013-06-09 11:53:00,89.2,77.7,30.06,NNE,23,11.0,11.2,69,0.00,BKN,,0.01,1259.0,WeatherDisplay:10.37,2013-06-09 15:53:00,
2013-06-09 11:58:00,88.8,76.0,30.06,NNE,20,12.7,12.7,66,0.00,BKN,,0.01,429.0,WeatherDisplay:10.37,2013-06-09 15:58:00,
2013-06-09 12:03:00,89.9,77.0,30.05,NNE,22,12.7,12.7,66,0.00,BKN,,0.01,1176.0,WeatherDisplay:10.37,2013-06-09 16:03:00,
2013-06-09 12:08:00,89.0,75.7,30.05,NNE,23,16.1,16.1,65,0.00,BKN,,0.01,385.0,WeatherDisplay:10.37,2013-06-09 16:08:00,
2013-06-09 12:13:00,89.0,77.1,30.05,NNE,22,11.5,12.2,68,0.00,BKN,,0.01,1169.0,WeatherDisplay:10.37,2013-06-09 16:13:00,
2013-06-09 12:18:00,89.2,76.4,30.06,NNE,23,11.5,11.5,66,0.00,BKN,,0.01,671.0,WeatherDisplay:10.37,2013-06-09 16:18:00,
2013-06-09 12:23:00,88.8,76.0,30.06,NNE,23,13.7,13.7,66,0.00,BKN,,0.01,540.0,WeatherDisplay:10.37,2013-06-09 16:23:00,
2013-06-09 12:28:00,88.7,75.4,30.06,NNE,23,16.1,17.2,65,0.00,BKN,,0.01,585.0,WeatherDisplay:10.37,2013-06-09 16:28:00,
2013-06-09 12:33:00,88.4,76.0,30.05,NNE,22,8.1,8.1,67,0.00,BKN,,0.01,527.0,WeatherDisplay:10.37,2013-06-09 16:33:00,
2013-06-09 12:38:00,88.5,76.1,30.05,NNE,22,12.7,12.7,67,0.00,BKN,,0.01,524.0,WeatherDisplay:10.37,2013-06-09 16:38:00,
2013-06-09 12:43:00,89.0,75.7,30.05,NNE,22,12.7,12.7,65,0.00,BKN,,0.01,622.0,WeatherDisplay:10.37,2013-06-09 16:43:00,
2013-06-09 12:48:00,88.5,75.7,30.05,NNE,22,11.5,11.9,66,0.00,BKN,,0.01,443.0,WeatherDisplay:10.37,2013-06-09 16:48:00,
2013-06-09 12:53:00,88.7,75.9,30.05,NNE,22,6.9,6.9,66,0.00,BKN,,0.01,434.0,WeatherDisplay:10.37,2013-06-09 16:53:00,
2013-06-09 12:58:00,88.3,75.0,30.05,NNE,22,11.5,11.5,65,0.00,BKN,,0.01,450.0,WeatherDisplay:10.37,2013-06-09 16:58:00,
2013-06-09 13:03:00,88.6,76.2,30.04,NNE,21,15.0,15.0,67,0.00,BKN,,0.01,689.0,WeatherDisplay:10.37,2013-06-09 17:03:00,
2013-06-09 13:08:00,89.3,76.4,30.04,NNE,22,6.9,6.9,66,0.00,BKN,,0.01,701.0,WeatherDisplay:10.37,2013-06-09 17:08:00,
2013-06-09 13:13:00,89.3,75.5,30.04,NNE,23,6.9,6.9,64,0.00,BKN,,0.01,575.0,WeatherDisplay:10.37,2013-06-09 17:13:00,
2013-06-09 13:18:00,89.4,76.1,30.04,NNE,22,12.7,12.7,65,0.00,BKN,,0.01,578.0,WeatherDisplay:10.37,2013-06-09 17:18:00,
2013-06-09 13:23:00,89.2,75.9,30.04,NNE,22,8.1,8.1,65,0.00,BKN,,0.01,338.0,WeatherDisplay:10.37,2013-06-09 17:23:00,
2013-06-09 13:28:00,88.5,77.0,30.04,NNE,16,4.6,4.6,69,0.00,BKN,,0.01,401.0,WeatherDisplay:10.37,2013-06-09 17:28:00,
2013-06-09 13:33:00,88.0,77.4,30.04,NNE,16,8.1,8.1,71,0.00,BKN,,0.01,786.0,WeatherDisplay:10.37,2013-06-09 17:33:00,
2013-06-09 13:38:00,88.7,77.7,30.04,NNE,18,8.1,9.7,70,0.00,BKN,,0.01,1253.0,WeatherDisplay:10.37,2013-06-09 17:38:00,
2013-06-09 13:43:00,89.7,77.7,30.04,NNE,17,2.7,3.3,68,0.00,BKN,,0.01,376.0,WeatherDisplay:10.37,2013-06-09 17:43:00,
2013-06-09 13:48:00,89.3,77.8,30.03,NNE,17,6.9,7.8,69,0.00,BKN,,0.01,1114.0,WeatherDisplay:10.37,2013-06-09 17:48:00,
2013-06-09 13:53:00,89.1,76.7,30.03,NNE,17,5.8,7.2,67,0.00,BKN,,0.01,327.0,WeatherDisplay:10.37,2013-06-09 17:53:00,
2013-06-09 13:58:00,89.1,77.2,30.03,NNE,17,11.0,11.0,68,0.00,BKN,,0.01,390.0,WeatherDisplay:10.37,2013-06-09 17:58:00,
2013-06-09 14:03:00,89.2,78.1,30.02,NNE,17,9.6,9.9,70,0.00,BKN,,0.01,489.0,WeatherDisplay:10.37,2013-06-09 18:03:00,
2013-06-09 14:09:00,89.7,77.7,30.02,NNE,17,11.5,11.5,68,0.00,BKN,,0.01,489.0,WeatherDisplay:10.37,2013-06-09 18:09:00,
2013-06-09 14:14:00,88.8,77.7,30.02,NNE,19,6.9,6.9,70,0.00,BKN,,0.01,171.0,WeatherDisplay:10.37,2013-06-09 18:14:00,
2013-06-09 14:19:00,87.5,76.5,30.02,NNE,18,11.5,11.5,70,0.00,BKN,,0.01,107.0,WeatherDisplay:10.37,2013-06-09 18:19:00,
2013-06-09 14:24:00,86.2,76.5,30.02,NNE,19,4.6,4.6,73,0.00,BKN,,0.01,93.0,WeatherDisplay:10.37,2013-06-09 18:24:00,
2013-06-09 14:29:00,85.2,76.0,30.02,NNE,18,8.1,8.2,74,0.00,BKN,,0.01,111.0,WeatherDisplay:10.37,2013-06-09 18:29:00,
2013-06-09 14:34:00,84.7,76.3,30.01,NNE,17,9.2,9.2,76,0.00,BKN,,0.01,172.0,WeatherDisplay:10.37,2013-06-09 18:34:00,
2013-06-09 14:39:00,84.4,76.8,30.01,NNE,17,11.5,11.5,78,0.00,BKN,,0.01,153.0,WeatherDisplay:10.37,2013-06-09 18:39:00,
2013-06-09 14:44:00,83.5,76.7,30.01,NNE,17,9.2,9.3,80,0.00,BKN,,0.01,128.0,WeatherDisplay:10.37,2013-06-09 18:44:00,
2013-06-09 14:49:00,82.6,76.5,30.01,NNE,18,18.4,18.4,82,0.03,RA,,0.04,88.0,WeatherDisplay:10.37,2013-06-09 18:49:00,
2013-06-09 14:54:00,81.2,76.6,30.01,NNE,17,12.7,12.7,86,0.14,RA,,0.16,86.0,WeatherDisplay:10.37,2013-06-09 18:54:00,
2013-06-09 14:59:00,80.1,76.2,30.01,NNE,16,5.8,5.8,88,0.24,RA,,0.25,134.0,WeatherDisplay:10.37,2013-06-09 18:59:00,
2013-06-09 15:04:00,80.0,76.8,30.01,NNE,15,1.2,1.2,90,0.24,RA,,0.25,128.0,WeatherDisplay:10.37,2013-06-09 19:04:00,
2013-06-09 15:09:00,81.3,78.8,30.01,NNE,17,4.6,4.6,92,0.24,BKN,,0.25,308.0,WeatherDisplay:10.37,2013-06-09 19:09:00,
2013-06-09 15:14:00,82.3,79.1,30.01,NNE,16,15.0,15.0,90,0.24,BKN,,0.25,905.0,WeatherDisplay:10.37,2013-06-09 19:14:00,
2013-06-09 15:19:00,83.0,79.4,30.01,NNE,17,11.5,11.5,89,0.24,BKN,,0.25,1023.0,WeatherDisplay:10.37,2013-06-09 19:19:00,
2013-06-09 15:24:00,83.9,79.3,30.01,NNE,16,13.8,13.8,86,0.24,BKN,,0.25,1158.0,WeatherDisplay:10.37,2013-06-09 19:24:00,
2013-06-09 15:29:00,84.7,79.3,30.01,NNE,16,13.8,13.8,84,0.24,BKN,,0.25,1158.0,WeatherDisplay:10.37,2013-06-09 19:29:00,
2013-06-09 15:34:00,84.8,79.1,30.01,NNE,17,12.7,12.7,83,0.24,BKN,,0.25,893.0,WeatherDisplay:10.37,2013-06-09 19:34:00,
2013-06-09 15:39:00,85.0,79.3,30.01,NNE,18,9.2,9.2,83,0.24,BKN,,0.25,733.0,WeatherDisplay:10.37,2013-06-09 19:39:00,
2013-06-09 15:44:00,85.4,78.9,30.00,NNE,17,6.9,6.9,81,0.24,BKN,,0.25,733.0,WeatherDisplay:10.37,2013-06-09 19:44:00,
2013-06-09 15:49:00,85.6,79.1,30.00,NNE,17,9.2,9.2,81,0.21,BKN,,0.25,912.0,WeatherDisplay:10.37,2013-06-09 19:49:00,
2013-06-09 15:54:00,86.4,79.1,30.00,NNE,21,11.5,11.5,79,0.10,BKN,,0.25,860.0,WeatherDisplay:10.37,2013-06-09 19:54:00,
2013-06-09 15:59:00,86.6,78.9,30.01,NNE,18,9.2,10.1,78,0.00,BKN,,0.25,889.0,WeatherDisplay:10.37,2013-06-09 19:59:00,
2013-06-09 16:04:00,85.8,77.8,30.01,NNE,19,15.0,15.0,77,0.00,BKN,,0.25,118.0,WeatherDisplay:10.37,2013-06-09 20:04:00,
2013-06-09 16:09:00,84.5,76.5,30.01,NNE,20,20.7,20.7,77,0.00,BKN,,0.25,49.0,WeatherDisplay:10.37,2013-06-09 20:09:00,
2013-06-09 16:14:00,82.7,75.9,30.00,NNE,22,19.6,19.6,80,0.00,BKN,,0.25,176.0,WeatherDisplay:10.37,2013-06-09 20:14:00,
2013-06-09 16:19:00,81.4,76.1,30.00,NNE,18,12.7,12.7,84,0.01,RA,,0.26,204.0,WeatherDisplay:10.37,2013-06-09 20:19:00,
2013-06-09 16:24:00,80.1,75.5,30.00,NNE,22,15.0,15.0,86,0.04,RA,,0.29,169.0,WeatherDisplay:10.37,2013-06-09 20:24:00,
2013-06-09 16:29:00,79.3,75.4,30.00,NNE,19,11.5,11.5,88,0.05,RA,,0.30,193.0,WeatherDisplay:10.37,2013-06-09 20:29:00,
2013-06-09 16:34:00,79.1,75.6,30.00,NNE,18,8.1,8.1,89,0.05,RA,,0.30,306.0,WeatherDisplay:10.37,2013-06-09 20:34:00,
2013-06-09 16:39:00,79.5,76.3,30.00,NNE,22,9.2,9.2,90,0.05,BKN,,0.30,417.0,WeatherDisplay:10.37,2013-06-09 20:39:00,
2013-06-09 16:44:00,80.0,76.8,29.99,NNE,17,11.5,11.5,90,0.05,BKN,,0.30,308.0,WeatherDisplay:10.37,2013-06-09 20:44:00,
2013-06-09 16:49:00,80.1,76.9,29.99,NNE,22,9.6,9.6,90,0.05,BKN,,0.30,227.0,WeatherDisplay:10.37,2013-06-09 20:49:00,
2013-06-09 16:54:00,79.9,76.4,29.99,NNE,20,6.9,6.9,89,0.05,BKN,,0.30,237.0,WeatherDisplay:10.37,2013-06-09 20:54:00,
2013-06-09 16:59:00,80.2,76.7,29.98,NNE,19,6.9,6.9,89,0.05,BKN,,0.30,225.0,WeatherDisplay:10.37,2013-06-09 20:59:00,
2013-06-09 17:04:00,80.5,77.0,29.98,NNE,20,6.9,6.9,89,0.05,OVC,,0.30,248.0,WeatherDisplay:10.37,2013-06-09 21:04:00,
2013-06-09 17:09:00,80.5,77.0,29.98,NNE,18,6.9,6.9,89,0.05,OVC,,0.30,255.0,WeatherDisplay:10.37,2013-06-09 21:09:00,
2013-06-09 17:14:00,80.6,77.4,29.98,NNE,21,5.8,5.8,90,0.05,OVC,,0.30,267.0,WeatherDisplay:10.37,2013-06-09 21:14:00,
2013-06-09 17:19:00,80.9,77.4,29.98,NNE,22,9.2,9.2,89,0.04,OVC,,0.30,271.0,WeatherDisplay:10.37,2013-06-09 21:19:00,
2013-06-09 17:24:00,81.0,77.4,29.98,NNE,22,13.7,13.7,89,0.01,OVC,,0.30,281.0,WeatherDisplay:10.37,2013-06-09 21:24:00,
2013-06-09 17:29:00,81.1,77.2,29.98,NNE,20,11.0,11.0,88,0.00,OVC,,0.30,274.0,WeatherDisplay:10.37,2013-06-09 21:29:00,
2013-06-09 17:34:00,81.1,76.5,29.98,NNE,17,5.8,5.8,86,0.00,OVC,,0.30,269.0,WeatherDisplay:10.37,2013-06-09 21:34:00,
2013-06-09 17:39:00,81.2,76.3,29.98,NNE,22,6.9,6.9,85,0.00,OVC,,0.30,211.0,WeatherDisplay:10.37,2013-06-09 21:39:00,
2013-06-09 17:44:00,81.0,75.7,29.99,NNE,21,8.2,8.2,84,0.00,OVC,,0.30,193.0,WeatherDisplay:10.37,2013-06-09 21:44:00,
2013-06-09 17:49:00,80.8,75.9,29.99,NNE,22,8.1,8.1,85,0.00,OVC,,0.30,176.0,WeatherDisplay:10.37,2013-06-09 21:49:00,
2013-06-09 17:54:00,80.8,75.5,29.99,NNE,21,6.9,8.4,84,0.00,OVC,,0.30,162.0,WeatherDisplay:10.37,2013-06-09 21:54:00,
2013-06-09 17:59:00,80.7,75.4,29.99,NNE,22,12.7,12.7,84,0.00,OVC,,0.30,151.0,WeatherDisplay:10.37,2013-06-09 21:59:00,
2013-06-09 18:04:00,80.4,75.1,29.99,NNE,22,5.8,9.3,84,0.00,OVC,,0.30,137.0,WeatherDisplay:10.37,2013-06-09 22:04:00,
2013-06-09 18:09:00,80.4,75.5,29.99,NNE,21,8.1,11.0,85,0.00,OVC,,0.30,121.0,WeatherDisplay:10.37,2013-06-09 22:09:00,
2013-06-09 18:14:00,80.2,75.3,30.00,NNE,18,6.9,6.9,85,0.00,OVC,,0.30,100.0,WeatherDisplay:10.37,2013-06-09 22:14:00,
2013-06-09 18:19:00,80.2,75.6,30.00,NNE,21,8.1,8.1,86,0.00,OVC,,0.30,79.0,WeatherDisplay:10.37,2013-06-09 22:19:00,
2013-06-09 18:24:00,79.9,75.3,30.00,NNE,21,6.9,8.5,86,0.00,OVC,,0.30,63.0,WeatherDisplay:10.37,2013-06-09 22:24:00,
2013-06-09 18:29:00,79.8,75.2,30.01,NNE,22,8.1,8.1,86,0.00,OVC,,0.30,44.0,WeatherDisplay:10.37,2013-06-09 22:29:00,
2013-06-09 18:34:00,79.6,75.0,30.01,NNE,21,8.1,8.1,86,0.00,OVC,,0.30,32.0,WeatherDisplay:10.37,2013-06-09 22:34:00,
2013-06-09 18:39:00,79.4,74.8,30.01,NNE,21,4.1,4.1,86,0.00,OVC,,0.30,25.0,WeatherDisplay:10.37,2013-06-09 22:39:00,
2013-06-09 18:44:00,79.3,74.7,30.01,NNE,21,1.4,1.4,86,0.00,OVC,,0.30,21.0,WeatherDisplay:10.37,2013-06-09 22:44:00,
2013-06-09 18:49:00,79.1,74.5,30.01,NNE,17,2.3,2.3,86,0.00,OVC,,0.30,19.0,WeatherDisplay:10.37,2013-06-09 22:49:00,
2013-06-09 18:54:00,79.1,74.9,30.01,NNE,17,2.3,0.0,87,0.00,OVC,,0.30,18.0,WeatherDisplay:10.37,2013-06-09 22:54:00,
2013-06-09 18:59:00,78.8,74.6,30.01,NNE,17,2.3,2.3,87,0.00,OVC,,0.30,16.0,WeatherDisplay:10.37,2013-06-09 22:59:00,
2013-06-09 19:04:00,78.9,75.0,30.01,NNE,17,2.7,2.7,88,0.00,-RA,,0.30,14.0,WeatherDisplay:10.37,2013-06-09 23:04:00,
2013-06-09 19:09:00,78.6,74.7,30.01,NNE,21,0.0,0.0,88,0.00,-RA,,0.30,14.0,WeatherDisplay:10.37,2013-06-09 23:09:00,
2013-06-09 19:14:00,78.4,74.5,30.01,NNE,21,1.2,1.2,88,0.01,-RA,,0.31,14.0,WeatherDisplay:10.37,2013-06-09 23:14:00,
2013-06-09 19:19:00,78.1,74.6,30.01,NNE,21,1.2,1.2,89,0.01,-RA,,0.31,12.0,WeatherDisplay:10.37,2013-06-09 23:19:00,
2013-06-09 19:24:00,78.0,74.5,30.01,NNE,21,0.0,0.0,89,0.00,-RA,,0.31,11.0,WeatherDisplay:10.37,2013-06-09 23:24:00,
2013-06-09 19:30:00,77.8,74.6,30.01,NNE,21,0.0,0.0,90,0.02,-RA,,0.32,11.0,WeatherDisplay:10.37,2013-06-09 23:30:00,
2013-06-09 19:35:00,77.6,74.4,30.01,NNE,21,1.2,1.2,90,0.02,-RA,,0.32,12.0,WeatherDisplay:10.37,2013-06-09 23:35:00,
2013-06-09 19:40:00,77.4,74.6,30.01,NNE,21,2.3,2.3,91,0.02,-RA,,0.32,14.0,WeatherDisplay:10.37,2013-06-09 23:40:00,
2013-06-09 19:45:00,77.5,74.7,30.02,NNE,21,2.3,2.3,91,0.02,-RA,,0.32,18.0,WeatherDisplay:10.37,2013-06-09 23:45:00,
2013-06-09 19:50:00,77.3,74.5,30.02,NNE,21,1.2,0.0,91,0.02,-RA,,0.32,21.0,WeatherDisplay:10.37,2013-06-09 23:50:00,
2013-06-09 19:55:00,77.4,74.6,30.02,NNE,21,0.0,0.0,91,0.03,-RA,,0.33,23.0,WeatherDisplay:10.37,2013-06-09 23:55:00,
2013-06-09 20:00:00,77.4,74.6,30.02,NNE,21,4.6,4.6,91,0.03,-RA,,0.33,21.0,WeatherDisplay:10.37,2013-06-10 00:00:00,
2013-06-09 20:05:00,77.2,74.4,30.02,NNE,21,2.3,2.3,91,0.03,-RA,,0.33,16.0,WeatherDisplay:10.37,2013-06-10 00:05:00,
2013-06-09 20:10:00,77.2,74.7,30.02,NNE,21,0.0,0.0,92,0.03,-RA,,0.33,18.0,WeatherDisplay:10.37,2013-06-10 00:10:00,
2013-06-09 20:15:00,77.1,74.6,30.02,NNE,21,2.3,2.3,92,0.02,-RA,,0.33,11.0,WeatherDisplay:10.37,2013-06-10 00:15:00,
2013-06-09 20:20:00,77.3,74.8,30.02,NNE,21,4.6,4.6,92,0.02,-RA,,0.33,5.0,WeatherDisplay:10.37,2013-06-10 00:20:00,
2013-06-09 20:25:00,77.2,74.7,30.02,NNE,21,1.2,0.0,92,0.02,-RA,,0.33,0.0,WeatherDisplay:10.37,2013-06-10 00:25:00,
2013-06-09 20:30:00,77.1,74.6,30.02,NNE,21,2.7,2.7,92,0.01,-RA,,0.33,0.0,WeatherDisplay:10.37,2013-06-10 00:30:00,
2013-06-09 20:35:00,77.0,74.5,30.02,NNE,21,0.0,0.0,92,0.01,BKN,,0.33,0.0,WeatherDisplay:10.37,2013-06-10 00:35:00,
2013-06-09 20:40:00,76.9,74.4,30.02,NNE,21,2.3,0.0,92,0.01,BKN,,0.33,0.0,WeatherDisplay:10.37,2013-06-10 00:40:00,
2013-06-09 20:45:00,76.9,74.4,30.02,NNE,21,1.2,1.2,92,0.01,BKN,,0.33,0.0,WeatherDisplay:10.37,2013-06-10 00:45:00,
2013-06-09 20:50:00,76.8,74.3,30.02,NNE,21,0.0,0.0,92,0.01,BKN,,0.33,0.0,WeatherDisplay:10.37,2013-06-10 00:50:00,
2013-06-09 20:55:00,76.8,74.3,30.02,NNE,20,4.6,4.6,92,0.00,BKN,,0.33,0.0,WeatherDisplay:10.37,2013-06-10 00:55:00,
2013-06-09 21:00:00,76.7,74.2,30.02,NNE,20,4.6,4.6,92,0.00,BKN,,0.33,0.0,WeatherDisplay:10.37,2013-06-10 01:00:00,
2013-06-09 21:05:00,76.7,74.2,30.02,NNE,19,0.0,3.0,92,0.00,BKN,,0.33,0.0,WeatherDisplay:10.37,2013-06-10 01:05:00,
2013-06-09 21:10:00,76.7,74.2,30.02,NNE,19,1.2,2.6,92,0.00,BKN,,0.33,0.0,WeatherDisplay:10.37,2013-06-10 01:10:00,
2013-06-09 21:15:00,76.5,74.3,30.01,NNE,19,0.0,0.0,93,0.00,BKN,,0.33,0.0,WeatherDisplay:10.37,2013-06-10 01:15:00,
2013-06-09 21:20:00,76.4,74.2,30.01,NNE,19,0.0,0.0,93,0.00,BKN,,0.33,0.0,WeatherDisplay:10.37,2013-06-10 01:20:00,
2013-06-09 21:25:00,76.5,74.3,30.01,NNE,19,1.4,1.5,93,0.00,BKN,,0.33,0.0,WeatherDisplay:10.37,2013-06-10 01:25:00,
2013-06-09 21:30:00,76.4,74.2,30.01,NNE,19,0.0,0.0,93,0.00,BKN,,0.33,0.0,WeatherDisplay:10.37,2013-06-10 01:30:00,
2013-06-09 21:35:00,76.5,74.3,30.01,NNE,19,0.0,0.0,93,0.00,BKN,,0.33,0.0,WeatherDisplay:10.37,2013-06-10 01:35:00,
2013-06-09 21:40:00,76.4,74.2,30.01,NNE,19,0.0,0.0,93,0.00,BKN,,0.33,0.0,WeatherDisplay:10.37,2013-06-10 01:40:00,
2013-06-09 21:45:00,76.4,74.2,30.02,NNE,19,0.0,0.1,93,0.00,BKN,,0.33,0.0,WeatherDisplay:10.37,2013-06-10 01:45:00,
2013-06-09 21:50:00,76.3,74.1,30.02,NNE,19,1.2,0.0,93,0.00,BKN,,0.33,0.0,WeatherDisplay:10.37,2013-06-10 01:50:00,
2013-06-09 21:55:00,76.3,74.1,30.02,NNE,19,1.2,1.2,93,0.00,BKN,,0.33,0.0,WeatherDisplay:10.37,2013-06-10 01:55:00,
2013-06-09 22:00:00,76.3,74.1,30.02,NNE,19,1.2,1.2,93,0.00,BKN,,0.33,0.0,WeatherDisplay:10.37,2013-06-10 02:00:00,
2013-06-09 22:05:00,76.4,74.2,30.02,NNE,17,4.6,4.6,93,0.00,BKN,,0.33,0.0,WeatherDisplay:10.37,2013-06-10 02:05:00,
2013-06-09 22:10:00,76.3,74.1,30.02,NNE,17,4.6,4.6,93,0.00,BKN,,0.33,0.0,WeatherDisplay:10.37,2013-06-10 02:10:00,
2013-06-09 22:15:00,76.2,74.0,30.02,NNE,17,5.8,5.8,93,0.00,BKN,,0.33,0.0,WeatherDisplay:10.37,2013-06-10 02:15:00,
2013-06-09 22:21:00,76.2,74.0,30.02,NNE,17,2.7,2.7,93,0.00,BKN,,0.33,0.0,WeatherDisplay:10.37,2013-06-10 02:21:00,
2013-06-09 22:26:00,76.1,73.9,30.02,NNE,19,5.5,5.5,93,0.00,BKN,,0.33,0.0,WeatherDisplay:10.37,2013-06-10 02:26:00,
2013-06-09 22:31:00,76.0,73.8,30.02,NNE,21,6.9,6.9,93,0.01,RA,,0.34,0.0,WeatherDisplay:10.37,2013-06-10 02:31:00,
2013-06-09 22:36:00,76.0,73.8,30.02,NNE,21,2.3,2.3,93,0.01,RA,,0.34,0.0,WeatherDisplay:10.37,2013-06-10 02:36:00,
2013-06-09 22:41:00,75.9,73.7,30.02,NNE,21,2.3,2.3,93,0.01,BKN,,0.34,0.0,WeatherDisplay:10.37,2013-06-10 02:41:00,
2013-06-09 22:46:00,75.8,73.6,30.02,NNE,21,5.5,5.5,93,0.01,BKN,,0.34,0.0,WeatherDisplay:10.37,2013-06-10 02:46:00,
2013-06-09 22:51:00,75.8,73.6,30.02,NNE,21,2.7,2.7,93,0.01,BKN,,0.34,0.0,WeatherDisplay:10.37,2013-06-10 02:51:00,
2013-06-09 22:56:00,75.7,73.5,30.02,NNE,20,1.4,1.4,93,0.01,BKN,,0.34,0.0,WeatherDisplay:10.37,2013-06-10 02:56:00,
2013-06-09 23:01:00,75.7,73.5,30.02,NNE,21,6.9,6.9,93,0.01,BKN,,0.34,0.0,WeatherDisplay:10.37,2013-06-10 03:01:00,
2013-06-09 23:06:00,75.7,73.5,30.02,NNE,21,1.2,1.2,93,0.01,BKN,,0.34,0.0,WeatherDisplay:10.37,2013-06-10 03:06:00,
2013-06-09 23:11:00,75.6,73.1,30.02,NNE,21,0.0,0.0,92,0.01,BKN,,0.34,0.0,WeatherDisplay:10.37,2013-06-10 03:11:00,
2013-06-09 23:16:00,75.5,73.0,30.02,NNE,21,1.2,0.0,92,0.01,BKN,,0.34,0.0,WeatherDisplay:10.37,2013-06-10 03:16:00,
2013-06-09 23:21:00,75.5,73.0,30.02,NNE,21,1.2,1.2,92,0.01,BKN,,0.34,0.0,WeatherDisplay:10.37,2013-06-10 03:21:00,
2013-06-09 23:26:00,75.4,72.9,30.02,NNE,21,0.0,0.0,92,0.01,BKN,,0.34,0.0,WeatherDisplay:10.37,2013-06-10 03:26:00,
2013-06-09 23:31:00,75.3,72.8,30.03,NNE,21,1.2,1.2,92,0.00,BKN,,0.34,0.0,WeatherDisplay:10.37,2013-06-10 03:31:00,
2013-06-09 23:36:00,75.2,72.7,30.03,NNE,21,0.0,0.0,92,0.00,BKN,,0.34,0.0,WeatherDisplay:10.37,2013-06-10 03:36:00,
2013-06-09 23:41:00,75.1,72.6,30.03,NNE,21,1.2,1.2,92,0.00,BKN,,0.34,0.0,WeatherDisplay:10.37,2013-06-10 03:41:00,
2013-06-09 23:46:00,75.2,72.7,30.03,NNE,21,4.6,4.6,92,0.00,BKN,,0.34,0.0,WeatherDisplay:10.37,2013-06-10 03:46:00,
2013-06-09 23:51:00,75.1,72.6,30.03,NNE,21,0.0,0.0,92,0.00,BKN,,0.34,0.0,WeatherDisplay:10.37,2013-06-10 03:51:00,
2013-06-09 23:56:00,75.0,72.5,30.03,NNE,21,0.0,0.0,92,0.00,BKN,,0.34,0.0,WeatherDisplay:10.37,2013-06-10 03:56:00,